Regional Weather Roundup
Issued by NWS

Home | Current Version | Previous Version | Graphics & Text | Print | Product List | Glossary On
Versions: 1 2 3 4 5 6 7 8 9 10 11 12 13 14 15 16 17 18 19 20 21 22 23 24 25 26 27 28 29 30 31 32 33 34 35 36 37 38 39 40 41 42 43 44 45 46 47 48 49 50
000
ASUS43 KLMK 201210
RWRKY
KENTUCKY REGIONAL WEATHER ROUNDUP
NATIONAL WEATHER SERVICE LOUISVILLE KY
700 AM EST MON NOV 20 2017

NOTE "FAIR" INDICATES FEW OR NO CLOUDS BELOW 12,000 FEET
WITH NO SIGNIFICANT WEATHER AND/OR OBSTRUCTIONS TO VISIBILITY.

KYZ001>023-026-027-061>063-070>075-201300-
WESTERN AND SOUTH CENTRAL KENTUCKY

CITY           SKY/WX    TMP DP  RH WIND       PRES   REMARKS
PADUCAH        CLOUDY    31  21  66 S5        30.23R WCI  26
HENDERSON      CLOUDY    26  23  88 S5        30.23  WCI  20
OWENSBORO      CLOUDY    26  23  88 SE5       30.24S WCI  20
HOPKINSVILLE   PTCLDY    27  23  87 CALM      30.24R
BOWLING GREEN  CLOUDY    25  23  92 CALM      30.26S
GLASGOW        CLOUDY    22  22 100 CALM      30.25R
$$

KYZ024-025-028>034-038-045-046-053-201300-
NORTH CENTRAL KENTUCKY

CITY           SKY/WX    TMP DP  RH WIND       PRES   REMARKS
LOUISVILLE/SDF CLEAR     27  22  81 SE5       30.25R WCI  22
LOUISVILLE/LOU CLEAR     26  23  88 S6        30.26R WCI  19
FORT KNOX      CLOUDY    25  20  82 CALM      30.22R
$$

KYZ035>037-039>044-047>052-055>060-089>105-201300-
NORTHEAST KENTUCKY

CITY           SKY/WX    TMP DP  RH WIND       PRES   REMARKS
LEXINGTON      CLOUDY    25  20  81 S6        30.23R WCI  18
COVINGTON      PTCLDY    23  22  96 S6        30.19S WCI  16
FRANKFORT      CLOUDY    23  18  81 CALM      30.23R
$$

KYZ054-064>069-076>088-106>120-201300-
SOUTHEAST KENTUCKY

CITY           SKY/WX    TMP DP  RH WIND       PRES   REMARKS
JACKSON        CLEAR     27  23  85 SW3       30.23R
LONDON         CLOUDY    24  21  88 CALM      30.24R
SOMERSET       FOG       23  23 100 CALM      30.27R VSB 1/2
MIDDLESBORO    CLEAR     24  24  99 CALM      30.27R
MONTICELLO     CLOUDY    19  17  92 W9        30.28R WCI   8
$$





USA.gov is the U.S. government's official web portal to all federal, state and local government web resources and services.